TimeCDT,TemperatureF,Dew PointF,Humidity,Sea Level PressureIn,VisibilityMPH,Wind Direction,Wind SpeedMPH,Gust SpeedMPH,PrecipitationIn,Events,Conditions,WindDirDegrees,DateUTC
12:53 AM,46.9,41.0,80,30.07,10.0,NW,10.4,-,N/A,,Overcast,310,2014-05-15 05:53:00
1:53 AM,46.9,41.0,80,30.06,10.0,NW,6.9,-,0.00,Rain,Light Rain,310,2014-05-15 06:53:00
2:53 AM,46.9,41.0,80,30.06,10.0,NW,6.9,-,0.00,,Overcast,310,2014-05-15 07:53:00
3:53 AM,46.9,41.0,80,30.07,10.0,WNW,8.1,-,N/A,,Overcast,300,2014-05-15 08:53:00
4:53 AM,46.9,41.0,80,30.08,10.0,West,5.8,-,N/A,,Overcast,280,2014-05-15 09:53:00
5:53 AM,46.9,39.9,77,30.10,10.0,West,5.8,-,N/A,,Overcast,270,2014-05-15 10:53:00
6:53 AM,46.9,41.0,80,30.11,6.0,Calm,Calm,-,N/A,,Haze,0,2014-05-15 11:53:00
7:53 AM,50.0,41.0,71,30.11,10.0,NW,5.8,-,N/A,,Clear,320,2014-05-15 12:53:00
8:53 AM,54.0,41.0,62,30.12,10.0,WNW,5.8,-,N/A,,Clear,300,2014-05-15 13:53:00
9:53 AM,57.9,42.1,56,30.12,10.0,Variable,4.6,-,N/A,,Clear,0,2014-05-15 14:53:00
10:53 AM,60.1,43.0,53,30.13,10.0,Variable,4.6,-,N/A,,Partly Cloudy,0,2014-05-15 15:53:00
11:53 AM,62.1,46.0,56,30.12,10.0,SW,10.4,-,N/A,,Partly Cloudy,230,2014-05-15 16:53:00
12:53 PM,61.0,45.0,56,30.11,10.0,South,12.7,-,N/A,,Mostly Cloudy,170,2014-05-15 17:53:00
2:53 PM,64.9,46.9,52,30.05,10.0,South,13.8,23.0,N/A,,Mostly Cloudy,190,2014-05-15 19:53:00
3:53 PM,66.0,46.9,50,30.01,10.0,SSW,13.8,-,N/A,,Partly Cloudy,200,2014-05-15 20:53:00
4:23 PM,64.0,46.0,52,30.02,10.0,SSW,12.7,24.2,N/A,Thunderstorm,Scattered Clouds,210,2014-05-15 21:23:00
4:30 PM,59.0,43.0,55,30.07,-9999.0,WNW,20.7,40.3,0.00,Rain-Thunderstorm,Light Thunderstorms and Rain,290,2014-05-15 21:30:00
4:39 PM,52.0,44.1,74,30.07,1.8,West,11.5,29.9,0.05,Rain-Thunderstorm,Heavy Thunderstorms and Rain,280,2014-05-15 21:39:00
4:48 PM,51.8,44.6,76,30.06,1.8,WSW,6.9,20.7,0.13,Rain-Thunderstorm,Heavy Thunderstorms and Rain,250,2014-05-15 21:48:00
4:53 PM,52.0,44.1,74,30.04,2.0,NNE,4.6,-,0.14,Rain-Thunderstorm,Thunderstorms and Rain,30,2014-05-15 21:53:00
5:01 PM,52.0,46.0,80,30.01,6.0,ENE,11.5,-,0.02,Rain-Thunderstorm,Light Thunderstorms and Rain,70,2014-05-15 22:01:00
5:16 PM,53.1,46.0,77,30.05,10.0,South,11.5,-,0.02,Thunderstorm,Overcast,190,2014-05-15 22:16:00
5:34 PM,53.1,46.0,77,30.05,10.0,SSE,8.1,-,0.02,,Overcast,160,2014-05-15 22:34:00
5:53 PM,53.1,46.0,77,30.06,10.0,Calm,Calm,-,0.02,,Scattered Clouds,0,2014-05-15 22:53:00
6:53 PM,55.0,46.9,74,30.06,10.0,South,8.1,-,N/A,,Clear,180,2014-05-15 23:53:00
7:33 PM,54.0,46.0,75,30.06,10.0,Calm,Calm,-,0.00,Rain-Thunderstorm,Light Rain,0,2014-05-16 00:33:00
7:48 PM,53.6,46.4,77,30.06,10.0,West,6.9,-,0.00,Rain,Light Rain,270,2014-05-16 00:48:00
7:53 PM,54.0,46.0,75,30.06,6.0,Calm,Calm,-,0.00,Rain,Light Rain,0,2014-05-16 00:53:00
8:53 PM,53.1,48.0,83,30.08,10.0,NNW,4.6,-,0.01,,Scattered Clouds,340,2014-05-16 01:53:00
9:53 PM,52.0,46.0,80,30.10,10.0,NW,6.9,-,N/A,,Mostly Cloudy,310,2014-05-16 02:53:00
10:53 PM,51.1,46.0,83,30.11,10.0,Calm,Calm,-,N/A,,Mostly Cloudy,0,2014-05-16 03:53:00
11:53 PM,50.0,46.0,86,30.11,10.0,Calm,Calm,-,N/A,,Partly Cloudy,0,2014-05-16 04:53:00